sat.trackr.live / text

‹ back to catalog

STARLINK-36411

NORAD 67608 · 2026-018V

PAYLOAD ACTIVE UNKNOWN

§ Identity

Operator
Country
US
Launch date
2026-01-29
Launch site
AFWTR
Launch vehicle
Mass (kg)
RCS (m²)

Purposes: comms

External: N2YO · Heavens-Above · Gunter

§ Orbital elements

Epoch: 2026-05-25T02:43:27.093792Z

Period
93.91 min
Inclination
97.2842°
Eccentricity
0.0000871
Mean motion
15.33423238 rev/d
Perigee alt
465.0 km
Apogee alt
466.2 km
Semi-major
6,843.7 km
B*
9.9146e-4
RAAN
210.2027°
Arg perigee
105.0794°
Mean anomaly
255.0545°
Rev number
1,904

§ Raw data

STARLINK-364111 67608U 26018V   26145.11350803  .00032047  00000+0  99146-3 0  99902 67608  97.2842 210.2027 0000871 105.0794 255.0545 15.33423238 19041

JSON: /api/v1/satellites/67608 · /tle

For live sub-satellite position, see the globe view (requires WebGL).

§ Visibility from observer

Set your observer location to see the next 7 days of passes ≥ 10°. The values pass through the URL so the page stays shareable.

No JS? Fill the form by hand. The geolocation button needs JavaScript.